[Date Prev][Date Next][Thread Prev][Thread Next] - [Date Index][Thread Index][Author Index]

2 Line ISS Keps 11-9



ISS
1 25544U 98067A   02313.15683950  .00041771  00000-0  53946-3 0  3518
2 25544  51.6389  45.0956 0014121 117.5149 315.3441 15.58423273226584


----
Via the sarex mailing list at AMSAT.ORG courtesy of AMSAT-NA.
To unsubscribe, send "unsubscribe sarex" to Majordomo@amsat.org



AMSAT Top AMSAT Home